COSMOS 1084

Satellite information

Favourite Embed

Satellite Type and Status

PAYLOADIN ORBIT

Key statistics

Satellite COSMOS 1084 at a glance.

Uptime

17035

Days in orbit

Revolutions

≈ 12.5

Per day

Orbit

LEO

Low Earth Orbit

Inclination

74.0

Latest

Satellite identification and parameters

Extended collection of information and parameters for COSMOS 1084.

Object identification

Identified? True

Debris? False

Object name: COSMOS 1084

International designator: 1979-024D

Object number (NORAD): 11299

Object ID (CCSDS): 11299

Country: COMMONWEALTH OF INDEPENDENT STATES (CIS)

Current information (Y/N): Y

RCS size: MEDIUM

Orbital parameters

Period: 115.155 minutes

Inclination: 74.0322 deg

SMA: 7840.587 km

Apoapsis: 1463.231 km

Periapsis: 1461.672 km

RAAN: 260.8409 deg

Eccentricy: 0.0000994

Argument of periapsis: 98.4148 deg

Mean anomaly: 18.1267 deg

Mean motion: 12.50489159 rev/day

Mean motion (dot): -0.00000013 rev/day2

B* drag term: 0.000016946 1/REarth

Two-line elements (TLE)

Creation date: Nov. 2, 2025, 3:46 p.m.

Reference frame: TEME

Reference center: EARTH

Epoch: Nov. 2, 2025, 8:31 a.m. UTC

TLE line 0: 0 COSMOS 1084

TLE line 1: 1 11299U 79024D 25306.35531934 -.00000013 00000-0 16946-4 0 9998

TLE line 2: 2 11299 74.0322 260.8409 0000994 98.4148 18.1267 12.50489159128759

Live tracking on map

Real-time ground track for satellite COSMOS 1084.

In-orbit conjunctions

A list of the most updated potential collisions computed for object COSMOS 1084.

Target Orbit TCA Probability of collision Miss distance Type
SL-14 DEB LEO 2025-09-08 14:24:54 0.0001447192 869.0 (m) DEBRIS

Associated space launch

Military communications satellites

COSMOS 1084 was lifted into orbit during the mission ‘Kosmos-3M | Strela-1M 169-176’, on board a Kosmos-3M space rocket.

The launch took place on March 15, 1979, 2:58 a.m. from 132/2.

For more information about the launch, click the button.

Launch to space Kosmos-3M | Strela-1M 169-176
Kosmos-3M | Strela-1M 169-176

Agency: N/A

Status: Launch Successful

Launch date: March 15, 1979, 2:58 a.m. UTC

Rocket: Kosmos-3M

Launch pad: 132/2

Location: Plesetsk Cosmodrome, Russian Federation

...

Latest news about this satellite

There are no fresh news available about this satellite. Check back as we update our databases every day.


Newsletter sign-up

Weekly statistics, charts and insights to help you stay on top of the space industry.